| time (UTC) | temp F | wind direction | speed MPH | gust MPH | rain 1hr in | rain 24hr in | rain mn in | humidity % | barometer mb |
| 20260506170708 | 53 | 330 | 5.0 | 6.0 | 0.00 | 0.00 | 0.00 | 43 | 1014.5 |
| 20260506170204 | 53 | 101 | 3.0 | 3.0 | 0.00 | 0.00 | 0.00 | 43 | 1014.3 |
| 20260506165703 | 52 | 152 | 2.0 | 2.0 | 0.00 | 0.00 | 0.00 | 45 | 1014.3 |
| 20260506165159 | 53 | 229 | 5.0 | 6.0 | 0.00 | 0.00 | 0.00 | 43 | 1014.4 |
| 20260506164656 | 54 | 65 | 2.0 | 2.0 | 0.00 | 0.00 | 0.00 | 43 | 1014.5 |
| 20260506164154 | 52 | 358 | 4.0 | 5.0 | 0.00 | 0.00 | 0.00 | 43 | 1014.3 |
| 20260506163650 | 52 | 95 | 2.0 | 2.0 | 0.00 | 0.00 | 0.00 | 43 | 1014.3 |
| 20260506163145 | 52 | 348 | 3.0 | 3.0 | 0.00 | 0.00 | 0.00 | 44 | 1014.5 |
| 20260506162641 | 52 | 275 | 2.0 | 3.0 | 0.00 | 0.00 | 0.00 | 41 | 1014.1 |
| 20260506162139 | 51 | 28 | 1.0 | 2.0 | 0.00 | 0.00 | 0.00 | 44 | 1014.1 |
| 20260506161636 | 52 | 343 | 3.0 | 5.0 | 0.00 | 0.00 | 0.00 | 43 | 1014.1 |
| 20260506161133 | 53 | 250 | 5.0 | 7.0 | 0.00 | 0.00 | 0.00 | 41 | 1014.2 |
| 20260506160630 | 53 | 61 | 0.0 | 1.0 | 0.00 | 0.00 | 0.00 | 42 | 1014.5 |
| 20260506160127 | 52 | 305 | 3.0 | 3.0 | 0.00 | 0.00 | 0.00 | 41 | 1014.3 |
| 20260506155626 | 52 | 233 | 3.0 | 3.0 | 0.00 | 0.00 | 0.00 | 42 | 1014.1 |
| 20260506155122 | 51 | 64 | 2.0 | 3.0 | 0.00 | 0.00 | 0.00 | 44 | 1014.2 |
| 20260506153219 | 51 | 279 | 3.0 | 3.0 | 0.00 | 0.00 | 0.00 | 44 | 1013.9 |
| 20260506152715 | 51 | 288 | 3.0 | 3.0 | 0.00 | 0.00 | 0.00 | 43 | 1014.1 |
| 20260506152213 | 52 | 109 | 2.0 | 3.0 | 0.00 | 0.00 | 0.00 | 44 | 1014.1 |
| 20260506151712 | 52 | 179 | 4.0 | 5.0 | 0.00 | 0.00 | 0.00 | 42 | 1014.2 |
| 20260506151208 | 51 | 173 | 4.0 | 6.0 | 0.00 | 0.00 | 0.00 | 42 | 1014.3 |
| 20260506150704 | 53 | 227 | 4.0 | 8.0 | 0.00 | 0.00 | 0.00 | 43 | 1014.0 |
| 20260506150202 | 54 | 277 | 3.0 | 3.0 | 0.00 | 0.00 | 0.00 | 42 | 1014.2 |
| 20260506145659 | 54 | 178 | 3.0 | 3.0 | 0.00 | 0.00 | 0.00 | 42 | 1014.2 |
| 20260506145155 | 53 | 133 | 1.0 | 2.0 | 0.00 | 0.00 | 0.00 | 44 | 1014.3 |
| 20260506144653 | 52 | 268 | 3.0 | 5.0 | 0.00 | 0.00 | 0.00 | 44 | 1014.3 |
| 20260506144149 | 52 | 293 | 2.0 | 2.0 | 0.00 | 0.00 | 0.00 | 46 | 1014.3 |
| 20260506143647 | 52 | 11 | 5.0 | 6.0 | 0.00 | 0.00 | 0.00 | 44 | 1014.2 |
| 20260506143145 | 52 | 329 | 5.0 | 6.0 | 0.00 | 0.00 | 0.00 | 46 | 1014.3 |
| 20260506142643 | 52 | 139 | 4.0 | 7.0 | 0.00 | 0.00 | 0.00 | 44 | 1014.4 |
| 20260506142141 | 51 | 281 | 2.0 | 6.0 | 0.00 | 0.00 | 0.00 | 45 | 1014.3 |
| 20260506141638 | 50 | 357 | 3.0 | 5.0 | 0.00 | 0.00 | 0.00 | 46 | 1014.4 |
| 20260506141136 | 50 | 327 | 8.0 | 11.0 | 0.00 | 0.00 | 0.00 | 43 | 1014.1 |
| 20260506140633 | 51 | 29 | 1.0 | 1.0 | 0.00 | 0.00 | 0.00 | 45 | 1014.4 |
| 20260506140131 | 51 | 114 | 0.0 | 1.0 | 0.00 | 0.00 | 0.00 | 47 | 1014.1 |
| 20260506135628 | 51 | 344 | 2.0 | 2.0 | 0.00 | 0.00 | 0.00 | 46 | 1014.5 |
| 20260506135124 | 50 | 23 | 1.0 | 1.0 | 0.00 | 0.00 | 0.00 | 47 | 1014.1 |
| 20260506134621 | 50 | 290 | 3.0 | 3.0 | 0.00 | 0.00 | 0.00 | 45 | 1014.2 |
| 20260506134116 | 50 | 16 | 2.0 | 2.0 | 0.00 | 0.00 | 0.00 | 45 | 1014.3 |
| 20260506133614 | 49 | 324 | 2.0 | 2.0 | 0.00 | 0.00 | 0.00 | 46 | 1014.2 |
| 20260506133111 | 49 | 129 | 1.0 | 1.0 | 0.00 | 0.00 | 0.00 | 48 | 1014.2 |
| 20260506132608 | 48 | 140 | 4.0 | 7.0 | 0.00 | 0.00 | 0.00 | 47 | 1014.2 |
| 20260506132105 | 48 | 54 | 2.0 | 2.0 | 0.00 | 0.00 | 0.00 | 50 | 1014.1 |
| 20260506131602 | 48 | 259 | 2.0 | 3.0 | 0.00 | 0.00 | 0.00 | 52 | 1014.0 |
| 20260506131058 | 47 | 75 | 0.0 | 1.0 | 0.00 | 0.00 | 0.00 | 53 | 1013.9 |
| 20260506130555 | 47 | 309 | 3.0 | 3.0 | 0.00 | 0.00 | 0.00 | 54 | 1013.9 |
| 20260506130053 | 46 | 140 | 1.0 | 2.0 | 0.00 | 0.00 | 0.00 | 55 | 1013.9 |
| 20260506125551 | 46 | 65 | 0.0 | 1.0 | 0.00 | 0.00 | 0.00 | 57 | 1014.1 |
| 20260506125048 | 45 | 106 | 1.0 | 1.0 | 0.00 | 0.00 | 0.00 | 59 | 1013.8 |
| 20260506124546 | 44 | 309 | 3.0 | 3.0 | 0.00 | 0.00 | 0.00 | 59 | 1013.9 |
| 20260506124044 | 44 | 52 | 1.0 | 1.0 | 0.00 | 0.00 | 0.00 | 61 | 1013.6 |
| 20260506123541 | 44 | 2 | 1.0 | 2.0 | 0.00 | 0.00 | 0.00 | 63 | 1013.7 |
| 20260506123040 | 43 | 334 | 2.0 | 2.0 | 0.00 | 0.00 | 0.00 | 63 | 1013.8 |
| 20260506122535 | 42 | 81 | 0.0 | 1.0 | 0.00 | 0.00 | 0.00 | 65 | 1013.7 |
| 20260506122034 | 42 | 58 | 1.0 | 1.0 | 0.00 | 0.00 | 0.00 | 66 | 1013.7 |
| 20260506121531 | 41 | 82 | 0.0 | 0.0 | 0.00 | 0.00 | 0.00 | 68 | 1013.5 |
| 20260506121027 | 40 | 87 | 0.0 | 1.0 | 0.00 | 0.00 | 0.00 | 70 | 1013.6 |
| 20260506120525 | 40 | 80 | 0.0 | 0.0 | 0.00 | 0.00 | 0.00 | 72 | 1013.7 |
| 20260506120022 | 39 | 88 | 0.0 | 0.0 | 0.00 | 0.00 | 0.00 | 73 | 1013.5 |
| 20260506115520 | 38 | 84 | 0.0 | 0.0 | 0.00 | 0.00 | 0.00 | 77 | 1013.5 |
| 20260506115019 | 38 | 86 | 0.0 | 0.0 | 0.00 | 0.00 | 0.00 | 77 | 1013.6 |
| 20260506114515 | 37 | 84 | 0.0 | 0.0 | 0.00 | 0.00 | 0.00 | 78 | 1013.4 |
| 20260506114014 | 37 | 87 | 0.0 | 0.0 | 0.00 | 0.00 | 0.00 | 78 | 1013.2 |
| 20260506113511 | 36 | 86 | 0.0 | 0.0 | 0.00 | 0.00 | 0.00 | 79 | 1013.3 |
| 20260506113009 | 36 | 86 | 0.0 | 0.0 | 0.00 | 0.00 | 0.00 | 79 | 1013.2 |
| 20260506112505 | 36 | 96 | 0.0 | 1.0 | 0.00 | 0.00 | 0.00 | 79 | 1013.2 |
| 20260506112003 | 35 | 86 | 0.0 | 0.0 | 0.00 | 0.00 | 0.00 | 82 | 1013.2 |
| 20260506111501 | 34 | 86 | 0.0 | 0.0 | 0.00 | 0.00 | 0.00 | 82 | 1013.2 |
| 20260506110957 | 34 | 86 | 0.0 | 0.0 | 0.00 | 0.00 | 0.00 | 83 | 1013.2 |
| 20260506110455 | 33 | 86 | 0.0 | 0.0 | 0.00 | 0.00 | 0.00 | 82 | 1013.3 |
| 20260506105951 | 34 | 86 | 0.0 | 0.0 | 0.00 | 0.00 | 0.00 | 81 | 1012.7 |
| 20260506105448 | 34 | 86 | 0.0 | 0.0 | 0.00 | 0.00 | 0.00 | 80 | 1012.7 |
| 20260506104945 | 34 | 115 | 0.0 | 0.0 | 0.00 | 0.00 | 0.00 | 81 | 1012.7 |
| 20260506104443 | 33 | 83 | 0.0 | 0.0 | 0.00 | 0.00 | 0.00 | 83 | 1012.8 |
| 20260506103941 | 33 | 83 | 0.0 | 0.0 | 0.00 | 0.00 | 0.00 | 82 | 1012.8 |
| 20260506103438 | 33 | 83 | 0.0 | 0.0 | 0.00 | 0.00 | 0.00 | 82 | 1012.9 |
| 20260506102935 | 33 | 83 | 0.0 | 0.0 | 0.00 | 0.00 | 0.00 | 81 | 1012.8 |
| 20260506102433 | 34 | 83 | 0.0 | 0.0 | 0.00 | 0.00 | 0.00 | 81 | 1012.7 |
| 20260506101930 | 34 | 82 | 0.0 | 0.0 | 0.00 | 0.00 | 0.00 | 82 | 1012.5 |
| 20260506101426 | 33 | 81 | 0.0 | 0.0 | 0.00 | 0.00 | 0.00 | 82 | 1012.5 |
| 20260506100924 | 33 | 82 | 0.0 | 0.0 | 0.00 | 0.00 | 0.00 | 82 | 1012.7 |
| 20260506100422 | 34 | 81 | 0.0 | 0.0 | 0.00 | 0.00 | 0.00 | 81 | 1012.7 |
| 20260506095920 | 33 | 82 | 0.0 | 0.0 | 0.00 | 0.00 | 0.00 | 81 | 1012.7 |
| 20260506095418 | 34 | 82 | 0.0 | 0.0 | 0.00 | 0.00 | 0.00 | 80 | 1012.6 |
| 20260506094914 | 34 | 82 | 0.0 | 0.0 | 0.00 | 0.00 | 0.00 | 80 | 1012.7 |
| 20260506094413 | 34 | 79 | 0.0 | 0.0 | 0.00 | 0.00 | 0.00 | 81 | 1012.7 |
| 20260506093910 | 34 | 81 | 0.0 | 0.0 | 0.00 | 0.00 | 0.00 | 82 | 1012.7 |
| 20260506093407 | 33 | 81 | 0.0 | 0.0 | 0.00 | 0.00 | 0.00 | 81 | 1012.9 |
| 20260506092905 | 34 | 81 | 0.0 | 0.0 | 0.00 | 0.00 | 0.00 | 80 | 1012.9 |
| 20260506092403 | 34 | 75 | 0.0 | 0.0 | 0.00 | 0.00 | 0.00 | 80 | 1012.6 |
| 20260506091859 | 34 | 86 | 0.0 | 0.0 | 0.00 | 0.00 | 0.00 | 79 | 1012.9 |
| 20260506091357 | 35 | 86 | 0.0 | 0.0 | 0.00 | 0.00 | 0.00 | 79 | 1012.9 |
| 20260506090854 | 35 | 88 | 0.0 | 0.0 | 0.00 | 0.00 | 0.00 | 79 | 1013.0 |
| 20260506090352 | 35 | 86 | 0.0 | 0.0 | 0.00 | 0.00 | 0.00 | 79 | 1012.6 |
| 20260506085848 | 34 | 86 | 0.0 | 0.0 | 0.00 | 0.00 | 0.00 | 80 | 1012.9 |
| 20260506085345 | 34 | 84 | 0.0 | 0.0 | 0.00 | 0.00 | 0.00 | 81 | 1012.8 |
| 20260506084841 | 34 | 82 | 0.0 | 0.0 | 0.00 | 0.00 | 0.00 | 83 | 1012.7 |
| 20260506084338 | 33 | 82 | 0.0 | 0.0 | 0.00 | 0.00 | 0.00 | 84 | 1012.6 |
| 20260506083835 | 33 | 82 | 0.0 | 0.0 | 0.00 | 0.00 | 0.00 | 82 | 1012.7 |
| 20260506083332 | 34 | 82 | 0.0 | 0.0 | 0.00 | 0.00 | 0.00 | 82 | 1012.5 |
| 20260506082829 | 35 | 82 | 0.0 | 0.0 | 0.00 | 0.00 | 0.00 | 82 | 1012.5 |
| 20260506082326 | 35 | 79 | 0.0 | 0.0 | 0.00 | 0.00 | 0.00 | 81 | 1012.4 |
| 20260506081822 | 35 | 79 | 0.0 | 0.0 | 0.00 | 0.00 | 0.00 | 79 | 1012.5 |
| 20260506081320 | 35 | 79 | 0.0 | 0.0 | 0.00 | 0.00 | 0.00 | 75 | 1012.4 |
| 20260506080818 | 36 | 79 | 0.0 | 0.0 | 0.00 | 0.00 | 0.00 | 74 | 1012.3 |
| 20260506080314 | 36 | 82 | 0.0 | 0.0 | 0.00 | 0.00 | 0.00 | 73 | 1012.3 |
| 20260506073258 | 37 | 81 | 0.0 | 0.0 | 0.00 | 0.00 | 0.00 | 70 | 1012.0 |
| 20260506072755 | 37 | 76 | 0.0 | 0.0 | 0.00 | 0.00 | 0.00 | 69 | 1012.2 |
| 20260506072252 | 38 | 81 | 0.0 | 0.0 | 0.00 | 0.00 | 0.00 | 67 | 1012.1 |
| 20260506071750 | 38 | 75 | 0.0 | 0.0 | 0.00 | 0.00 | 0.00 | 67 | 1012.3 |
| 20260506071248 | 38 | 81 | 0.0 | 0.0 | 0.00 | 0.00 | 0.00 | 67 | 1012.4 |
| 20260506070744 | 39 | 82 | 0.0 | 0.0 | 0.00 | 0.00 | 0.00 | 65 | 1012.3 |
| 20260506070243 | 38 | 82 | 0.0 | 0.0 | 0.00 | 0.00 | 0.00 | 65 | 1012.2 |
| 20260506062218 | 42 | 83 | 0.0 | 1.0 | 0.00 | 0.00 | 0.00 | 57 | 1012.4 |
| 20260506061714 | 42 | 82 | 0.0 | 0.0 | 0.00 | 0.00 | 0.00 | 57 | 1012.4 |
| 20260506061212 | 43 | 81 | 0.0 | 0.0 | 0.00 | 0.00 | 0.00 | 55 | 1012.3 |
| 20260506060711 | 43 | 78 | 0.0 | 0.0 | 0.00 | 0.00 | 0.00 | 54 | 1012.0 |
| 20260506060207 | 43 | 78 | 0.0 | 0.0 | 0.00 | 0.00 | 0.00 | 54 | 1012.3 |
| 20260506051139 | 42 | 78 | 0.0 | 0.0 | 0.00 | 0.00 | 0.00 | 56 | 1012.5 |
| 20260506050638 | 42 | 81 | 0.0 | 0.0 | 0.00 | 0.00 | 0.00 | 55 | 1012.6 |
| 20260506050134 | 42 | 79 | 0.0 | 0.0 | 0.00 | 0.00 | 0.00 | 53 | 1012.7 |
| 20260506045127 | 43 | 79 | 0.0 | 0.0 | 0.00 | 0.00 | 0.00 | 52 | 1012.5 |
| 20260506044625 | 44 | 82 | 0.0 | 0.0 | 0.00 | 0.00 | 0.00 | 51 | 1012.3 |
| 20260506044122 | 44 | 79 | 0.0 | 0.0 | 0.00 | 0.00 | 0.00 | 50 | 1012.5 |
| 20260506043619 | 44 | 96 | 1.0 | 2.0 | 0.00 | 0.00 | 0.00 | 49 | 1012.2 |
| 20260506043117 | 45 | 51 | 1.0 | 1.0 | 0.00 | 0.00 | 0.00 | 49 | 1012.3 |
| 20260506042616 | 45 | 73 | 0.0 | 0.0 | 0.00 | 0.00 | 0.00 | 47 | 1012.5 |
| 20260506042114 | 46 | 76 | 0.0 | 0.0 | 0.00 | 0.00 | 0.00 | 46 | 1012.4 |
| 20260506041612 | 46 | 72 | 1.0 | 1.0 | 0.00 | 0.00 | 0.00 | 46 | 1012.2 |
| 20260506041108 | 46 | 72 | 1.0 | 1.0 | 0.00 | 0.00 | 0.00 | 44 | 1012.0 |
| 20260506040607 | 47 | 70 | 1.0 | 1.0 | 0.00 | 0.00 | 0.00 | 44 | 1011.9 |
| 20260506035600 | 47 | 72 | 0.0 | 0.0 | 0.00 | 0.00 | 0.00 | 44 | 1012.0 |
| 20260506035056 | 47 | 55 | 1.0 | 1.0 | 0.00 | 0.00 | 0.00 | 43 | 1011.9 |
| 20260506034554 | 47 | 16 | 5.0 | 6.0 | 0.00 | 0.00 | 0.00 | 43 | 1011.8 |
| 20260506034050 | 48 | 49 | 2.0 | 3.0 | 0.00 | 0.00 | 0.00 | 43 | 1011.9 |
| 20260506033548 | 48 | 35 | 1.0 | 2.0 | 0.00 | 0.00 | 0.00 | 43 | 1011.8 |
| 20260506033044 | 48 | 90 | 1.0 | 1.0 | 0.00 | 0.00 | 0.00 | 43 | 1012.1 |
| 20260506032542 | 48 | 7 | 3.0 | 3.0 | 0.00 | 0.00 | 0.00 | 43 | 1011.9 |
| 20260506032038 | 49 | 12 | 6.0 | 8.0 | 0.00 | 0.00 | 0.00 | 42 | 1011.8 |
| 20260506031536 | 49 | 56 | 2.0 | 3.0 | 0.00 | 0.00 | 0.00 | 42 | 1012.0 |
| 20260506031033 | 49 | 44 | 1.0 | 1.0 | 0.00 | 0.00 | 0.00 | 42 | 1011.8 |
| 20260506030531 | 49 | 51 | 2.0 | 2.0 | 0.00 | 0.00 | 0.00 | 42 | 1011.8 |
| 20260506030028 | 49 | 351 | 2.0 | 3.0 | 0.00 | 0.00 | 0.00 | 41 | 1011.7 |
| 20260506025525 | 50 | 70 | 1.0 | 1.0 | 0.00 | 0.00 | 0.00 | 41 | 1011.7 |
| 20260506025021 | 50 | 28 | 4.0 | 5.0 | 0.00 | 0.00 | 0.00 | 41 | 1011.7 |
| 20260506024518 | 50 | 67 | 2.0 | 2.0 | 0.00 | 0.00 | 0.00 | 41 | 1011.6 |
| 20260506024014 | 50 | 107 | 3.0 | 5.0 | 0.00 | 0.00 | 0.00 | 41 | 1011.5 |
| 20260506023510 | 50 | 15 | 1.0 | 2.0 | 0.00 | 0.00 | 0.00 | 40 | 1011.5 |
| 20260506023008 | 50 | 73 | 2.0 | 2.0 | 0.00 | 0.00 | 0.00 | 42 | 1011.3 |
| 20260506022506 | 50 | 83 | 1.0 | 1.0 | 0.00 | 0.00 | 0.00 | 41 | 1011.3 |
| 20260506022003 | 50 | 76 | 1.0 | 2.0 | 0.00 | 0.00 | 0.00 | 39 | 1011.1 |
| 20260506021500 | 50 | 12 | 2.0 | 2.0 | 0.00 | 0.00 | 0.00 | 41 | 1010.8 |
| 20260506020957 | 51 | 13 | 2.0 | 2.0 | 0.00 | 0.00 | 0.00 | 40 | 1010.7 |
| 20260506020455 | 51 | 87 | 2.0 | 2.0 | 0.00 | 0.00 | 0.00 | 40 | 1010.9 |
| 20260506015952 | 51 | 84 | 2.0 | 2.0 | 0.00 | 0.00 | 0.00 | 39 | 1010.8 |
| 20260506015449 | 51 | 68 | 0.0 | 1.0 | 0.00 | 0.00 | 0.00 | 39 | 1010.4 |
| 20260506014946 | 51 | 10 | 1.0 | 1.0 | 0.00 | 0.00 | 0.00 | 39 | 1010.7 |
| 20260506014443 | 51 | 33 | 2.0 | 2.0 | 0.00 | 0.00 | 0.00 | 38 | 1010.4 |
| 20260506013939 | 51 | 71 | 2.0 | 3.0 | 0.00 | 0.00 | 0.00 | 39 | 1010.5 |
| 20260506013438 | 52 | 69 | 0.0 | 1.0 | 0.00 | 0.00 | 0.00 | 38 | 1010.3 |
| 20260506012933 | 52 | 83 | 1.0 | 2.0 | 0.00 | 0.00 | 0.00 | 37 | 1010.1 |
| 20260506012430 | 52 | 79 | 1.0 | 1.0 | 0.00 | 0.00 | 0.00 | 37 | 1010.0 |
| 20260506011927 | 52 | 101 | 2.0 | 2.0 | 0.00 | 0.00 | 0.00 | 36 | 1010.1 |
| 20260506011425 | 52 | 10 | 3.0 | 5.0 | 0.00 | 0.00 | 0.00 | 36 | 1010.0 |
| 20260506010921 | 53 | 17 | 2.0 | 3.0 | 0.00 | 0.00 | 0.00 | 36 | 1010.0 |
| 20260506010420 | 53 | 330 | 4.0 | 6.0 | 0.00 | 0.00 | 0.00 | 37 | 1009.6 |
| 20260506005916 | 53 | 37 | 2.0 | 3.0 | 0.00 | 0.00 | 0.00 | 37 | 1009.7 |
| 20260506005414 | 53 | 45 | 1.0 | 1.0 | 0.00 | 0.00 | 0.00 | 37 | 1009.8 |
| 20260506004909 | 53 | 51 | 2.0 | 3.0 | 0.00 | 0.00 | 0.00 | 36 | 1009.8 |
| 20260506004407 | 53 | 265 | 2.0 | 5.0 | 0.00 | 0.00 | 0.00 | 35 | 1009.5 |
| 20260506003903 | 54 | 351 | 3.0 | 5.0 | 0.00 | 0.00 | 0.00 | 35 | 1009.6 |
| 20260506003359 | 54 | 69 | 5.0 | 7.0 | 0.00 | 0.00 | 0.00 | 34 | 1009.4 |
| 20260506002856 | 54 | 79 | 1.0 | 1.0 | 0.00 | 0.00 | 0.00 | 36 | 1009.3 |
| 20260506002352 | 54 | 53 | 3.0 | 3.0 | 0.00 | 0.00 | 0.00 | 35 | 1009.2 |
| 20260506001848 | 54 | 43 | 0.0 | 1.0 | 0.00 | 0.00 | 0.00 | 36 | 1009.1 |
| 20260506001345 | 55 | 58 | 2.0 | 2.0 | 0.00 | 0.00 | 0.00 | 35 | 1009.6 |
| 20260506000842 | 55 | 282 | 3.0 | 3.0 | 0.00 | 0.00 | 0.00 | 35 | 1009.2 |
| 20260506000340 | 55 | 343 | 2.0 | 2.0 | 0.00 | 0.00 | 0.00 | 35 | 1009.4 |
| 20260505235836 | 55 | 56 | 1.0 | 1.0 | 0.00 | 0.00 | 0.00 | 34 | 1009.1 |
| 20260505235334 | 55 | 61 | 1.0 | 1.0 | 0.00 | 0.00 | 0.00 | 35 | 1009.3 |
| 20260505234830 | 55 | 283 | 2.0 | 3.0 | 0.00 | 0.00 | 0.00 | 33 | 1009.4 |
| 20260505234329 | 55 | 55 | 2.0 | 2.0 | 0.00 | 0.00 | 0.00 | 35 | 1009.1 |
| 20260505233825 | 55 | 310 | 5.0 | 7.0 | 0.00 | 0.00 | 0.00 | 34 | 1009.3 |
| 20260505233323 | 56 | 296 | 3.0 | 3.0 | 0.00 | 0.00 | 0.00 | 34 | 1009.3 |
| 20260505232820 | 56 | 35 | 1.0 | 1.0 | 0.00 | 0.00 | 0.00 | 34 | 1009.4 |
| 20260505232318 | 56 | 92 | 4.0 | 6.0 | 0.00 | 0.00 | 0.00 | 34 | 1009.3 |
| 20260505231814 | 56 | 59 | 2.0 | 2.0 | 0.00 | 0.00 | 0.00 | 34 | 1009.3 |
| 20260505231312 | 56 | 113 | 1.0 | 2.0 | 0.00 | 0.00 | 0.00 | 33 | 1009.3 |
| 20260505230810 | 56 | 36 | 4.0 | 6.0 | 0.00 | 0.00 | 0.00 | 33 | 1009.0 |
| 20260505230307 | 57 | 300 | 2.0 | 2.0 | 0.00 | 0.00 | 0.00 | 35 | 1009.3 |
| 20260505225803 | 58 | 341 | 3.0 | 3.0 | 0.00 | 0.00 | 0.00 | 34 | 1009.2 |
| 20260505225301 | 58 | 72 | 0.0 | 1.0 | 0.00 | 0.00 | 0.00 | 33 | 1009.2 |
| 20260505224755 | 58 | 334 | 1.0 | 1.0 | 0.00 | 0.00 | 0.00 | 32 | 1009.2 |
| 20260505224254 | 58 | 310 | 5.0 | 6.0 | 0.00 | 0.00 | 0.00 | 32 | 1009.2 |
| 20260505223751 | 57 | 49 | 3.0 | 5.0 | 0.00 | 0.00 | 0.00 | 32 | 1009.1 |
| 20260505223247 | 57 | 287 | 5.0 | 9.0 | 0.00 | 0.00 | 0.00 | 33 | 1009.2 |
| 20260505222743 | 58 | 303 | 3.0 | 5.0 | 0.00 | 0.00 | 0.00 | 33 | 1008.9 |
| 20260505222240 | 58 | 333 | 6.0 | 8.0 | 0.00 | 0.00 | 0.00 | 33 | 1009.0 |
| 20260505221737 | 59 | 24 | 4.0 | 7.0 | 0.00 | 0.00 | 0.00 | 30 | 1008.9 |
| 20260505221233 | 59 | 117 | 2.0 | 2.0 | 0.00 | 0.00 | 0.00 | 31 | 1008.8 |
| 20260505220730 | 59 | 304 | 4.0 | 6.0 | 0.00 | 0.00 | 0.00 | 33 | 1009.0 |
| 20260505220228 | 57 | 266 | 5.0 | 7.0 | 0.00 | 0.00 | 0.00 | 33 | 1008.9 |
| 20260505215726 | 58 | 261 | 2.0 | 5.0 | 0.00 | 0.00 | 0.00 | 33 | 1009.0 |
| 20260505215223 | 59 | 328 | 7.0 | 8.0 | 0.00 | 0.00 | 0.00 | 31 | 1009.1 |
| 20260505214721 | 57 | 306 | 3.0 | 3.0 | 0.00 | 0.00 | 0.00 | 33 | 1009.0 |
| 20260505214218 | 57 | 305 | 6.0 | 7.0 | 0.00 | 0.00 | 0.00 | 33 | 1009.1 |
| 20260505213715 | 57 | 261 | 1.0 | 2.0 | 0.00 | 0.00 | 0.00 | 36 | 1008.9 |
| 20260505213213 | 57 | 64 | 2.0 | 2.0 | 0.00 | 0.00 | 0.00 | 34 | 1009.1 |
| 20260505212708 | 59 | 307 | 5.0 | 7.0 | 0.00 | 0.00 | 0.00 | 33 | 1009.3 |
| 20260505212206 | 57 | 195 | 3.0 | 5.0 | 0.00 | 0.00 | 0.00 | 34 | 1008.8 |
| 20260505211703 | 57 | 154 | 2.0 | 2.0 | 0.00 | 0.00 | 0.00 | 35 | 1009.3 |
| 20260505211200 | 57 | 264 | 3.0 | 5.0 | 0.00 | 0.00 | 0.00 | 34 | 1009.0 |
| 20260505210656 | 58 | 272 | 2.0 | 3.0 | 0.00 | 0.00 | 0.00 | 34 | 1009.1 |
| 20260505210153 | 58 | 250 | 3.0 | 5.0 | 0.00 | 0.00 | 0.00 | 33 | 1009.0 |
| 20260505205651 | 58 | 37 | 3.0 | 5.0 | 0.00 | 0.00 | 0.00 | 35 | 1008.9 |
| 20260505205149 | 58 | 250 | 3.0 | 5.0 | 0.00 | 0.00 | 0.00 | 34 | 1009.0 |
| 20260505204645 | 61 | 12 | 2.0 | 2.0 | 0.00 | 0.00 | 0.00 | 33 | 1008.9 |
| 20260505204143 | 58 | 320 | 2.0 | 2.0 | 0.00 | 0.00 | 0.00 | 35 | 1009.2 |
| 20260505203640 | 57 | 210 | 5.0 | 8.0 | 0.00 | 0.00 | 0.00 | 36 | 1009.2 |
| 20260505203137 | 57 | 2 | 4.0 | 6.0 | 0.00 | 0.00 | 0.00 | 34 | 1009.4 |
| 20260505202632 | 58 | 277 | 5.0 | 8.0 | 0.00 | 0.00 | 0.00 | 34 | 1009.5 |
| 20260505202128 | 58 | 12 | 5.0 | 8.0 | 0.00 | 0.00 | 0.00 | 34 | 1009.3 |
| 20260505201625 | 60 | 83 | 3.0 | 5.0 | 0.00 | 0.00 | 0.00 | 36 | 1009.5 |
| 20260505201124 | 59 | 324 | 2.0 | 3.0 | 0.00 | 0.00 | 0.00 | 37 | 1009.2 |
| 20260505200621 | 59 | 323 | 5.0 | 6.0 | 0.00 | 0.00 | 0.00 | 36 | 1009.2 |
| 20260505200118 | 57 | 301 | 3.0 | 3.0 | 0.00 | 0.00 | 0.00 | 37 | 1009.3 |
| 20260505195614 | 58 | 307 | 4.0 | 6.0 | 0.00 | 0.00 | 0.00 | 34 | 1009.5 |
| 20260505195111 | 57 | 339 | 5.0 | 6.0 | 0.00 | 0.00 | 0.00 | 34 | 1009.6 |
| 20260505194608 | 57 | 10 | 3.0 | 5.0 | 0.00 | 0.00 | 0.00 | 36 | 1009.5 |
| 20260505194104 | 56 | 10 | 6.0 | 8.0 | 0.00 | 0.00 | 0.00 | 36 | 1009.8 |
| 20260505193601 | 57 | 22 | 4.0 | 6.0 | 0.00 | 0.00 | 0.00 | 35 | 1009.7 |
| 20260505193058 | 57 | 102 | 2.0 | 2.0 | 0.00 | 0.00 | 0.00 | 37 | 1009.6 |
| 20260505192557 | 57 | 277 | 8.0 | 10.0 | 0.00 | 0.00 | 0.00 | 37 | 1009.8 |
| 20260505192054 | 57 | 350 | 5.0 | 7.0 | 0.00 | 0.00 | 0.00 | 38 | 1009.8 |
| 20260505191552 | 57 | 280 | 6.0 | 8.0 | 0.00 | 0.00 | 0.00 | 38 | 1009.7 |
| 20260505191050 | 56 | 44 | 4.0 | 7.0 | 0.00 | 0.00 | 0.00 | 38 | 1010.0 |
| 20260505190544 | 57 | 298 | 3.0 | 5.0 | 0.00 | 0.00 | 0.00 | 37 | 1009.9 |
| 20260505190040 | 56 | 238 | 2.0 | 3.0 | 0.00 | 0.00 | 0.00 | 38 | 1009.8 |
| 20260505185537 | 56 | 297 | 3.0 | 3.0 | 0.00 | 0.00 | 0.00 | 37 | 1009.8 |
| 20260505185034 | 56 | 128 | 3.0 | 3.0 | 0.00 | 0.00 | 0.00 | 37 | 1009.9 |
| 20260505184531 | 56 | 284 | 8.0 | 9.0 | 0.00 | 0.00 | 0.00 | 38 | 1009.4 |
| 20260505184027 | 56 | 343 | 6.0 | 9.0 | 0.00 | 0.00 | 0.00 | 36 | 1009.5 |
| 20260505183524 | 55 | 262 | 5.0 | 7.0 | 0.00 | 0.00 | 0.00 | 36 | 1009.6 |
| 20260505183022 | 56 | 169 | 4.0 | 6.0 | 0.00 | 0.00 | 0.00 | 36 | 1009.5 |
| 20260505182518 | 56 | 297 | 5.0 | 6.0 | 0.00 | 0.00 | 0.00 | 35 | 1009.5 |
| 20260505182015 | 56 | 314 | 6.0 | 6.0 | 0.00 | 0.00 | 0.00 | 33 | 1009.3 |
| 20260505181511 | 57 | 287 | 5.0 | 9.0 | 0.00 | 0.00 | 0.00 | 34 | 1009.2 |
| 20260505181009 | 56 | 10 | 4.0 | 7.0 | 0.00 | 0.00 | 0.00 | 34 | 1009.2 |
| 20260505180504 | 56 | 8 | 3.0 | 3.0 | 0.00 | 0.00 | 0.00 | 35 | 1009.0 |
| 20260505180003 | 56 | 255 | 3.0 | 5.0 | 0.00 | 0.00 | 0.00 | 33 | 1009.0 |
| 20260505175457 | 57 | 86 | 2.0 | 3.0 | 0.00 | 0.00 | 0.00 | 35 | 1009.0 |
| 20260505174954 | 57 | 300 | 5.0 | 8.0 | 0.00 | 0.00 | 0.00 | 38 | 1009.1 |
| 20260505174451 | 57 | 245 | 5.0 | 6.0 | 0.00 | 0.00 | 0.00 | 39 | 1009.2 |
| 20260505173947 | 55 | 148 | 3.0 | 3.0 | 0.00 | 0.00 | 0.00 | 40 | 1009.2 |
| 20260505173444 | 55 | 291 | 6.0 | 8.0 | 0.00 | 0.00 | 0.00 | 38 | 1009.2 |
| 20260505172941 | 56 | 133 | 4.0 | 6.0 | 0.00 | 0.00 | 0.00 | 38 | 1009.3 |
| 20260505172439 | 56 | 144 | 2.0 | 3.0 | 0.00 | 0.00 | 0.00 | 39 | 1009.5 |
| 20260505171938 | 56 | 314 | 3.0 | 3.0 | 0.00 | 0.00 | 0.00 | 41 | 1009.2 |
| 20260505171436 | 56 | 293 | 3.0 | 5.0 | 0.00 | 0.00 | 0.00 | 38 | 1009.4 |
| 20260505170932 | 56 | 298 | 7.0 | 10.0 | 0.00 | 0.00 | 0.00 | 39 | 1009.1 |